Change the Weather History Date:

Monday, December 31, 2012

  Actual Average Record
Temperature  
Mean Temperature 40 °F -  
Max Temperature 53 °F 50 °F 79 °F (1984)
Min Temperature 26 °F 31 °F 9 °F (1983)
Degree Days  
Heating Degree Days 26    
Moisture  
Dew Point 21 °F    
Average Humidity 51    
Maximum Humidity 78    
Minimum Humidity 27    
Precipitation  
Precipitation 0.00 in - - ()
Sea Level Pressure  
Sea Level Pressure 30.27 in    
Wind  
Wind Speed 1 mph (SW)    
Max Wind Speed 8 mph    
Max Gust Speed -    
Visibility 10 miles    
Events      
Averages and records for this station are not official NWS values.
T = Trace of Precipitation, MM = Missing Value Source: NWS Daily Summary

Daily Weather History Graph

Daily Weather History Graph

Search for Another Location

Airport or City:

Trip Planner

Search our weather history database for the weather conditions in past years. The results will help you decide how hot, cold, wet, or windy it might be!

Date:

Astronomy

Dec. 31, 2012 Rise Set
Actual Time 7:26 AM EST 5:12 PM EST
Civil Twilight 6:58 AM EST 5:41 PM EST
Nautical Twilight 6:26 AM EST 6:13 PM EST
Astronomical Twilight 5:54 AM EST 6:44 PM EST
Moon 8:34 PM EST (12/31) 9:13 AM EST (12/31)
Length of Visible Light 10h 42m
Length of Day
9h 46m
Waning Gibbous, 90% of the Moon is Illuminated
Dec 31
Waning Gibbous
Jan 4
Last Quarter
Jan 11
New
Jan 18
First Quarter
Jan 26
Full

Hourly Weather History & Observations

Time (EST) Temp. Windchill Dew Point Humidity Pressure Visibility Wind Dir Wind Speed Gust Speed Precip Events Conditions
12:56 AM 27.0 °F - 19.0 °F 72% 30.37 in 10.0 mi Calm Calm - N/A   Clear
1:56 AM 27.0 °F - 21.0 °F 78% 30.35 in 10.0 mi Calm Calm - N/A   Clear
2:56 AM 27.0 °F - 19.0 °F 72% 30.37 in 10.0 mi Calm Calm - N/A   Clear
3:56 AM 26.1 °F - 19.9 °F 78% 30.36 in 10.0 mi Calm Calm - N/A   Clear
4:56 AM 26.1 °F - 19.0 °F 75% 30.36 in 10.0 mi Calm Calm - N/A   Clear
5:56 AM 26.1 °F - 19.9 °F 78% 30.37 in 10.0 mi Calm Calm - N/A   Clear
6:56 AM 27.0 °F - 19.9 °F 75% 30.35 in 10.0 mi Calm Calm - N/A   Clear
7:56 AM 30.0 °F 26.5 °F 19.0 °F 64% 30.36 in 10.0 mi SW 3.5 mph - N/A   Clear
8:56 AM 33.1 °F - 21.0 °F 61% 30.36 in 10.0 mi Calm Calm - N/A   Clear
9:56 AM 37.9 °F - 19.9 °F 48% 30.36 in 10.0 mi Calm Calm - N/A   Clear
10:56 AM 46.0 °F - 21.0 °F 37% 30.33 in 10.0 mi North - - N/A   Clear
11:56 AM 46.9 °F - 21.9 °F 37% 30.30 in 10.0 mi Variable 4.6 mph - N/A   Clear
12:56 PM 51.1 °F - 21.0 °F 31% 30.25 in 10.0 mi Variable 6.9 mph - N/A   Clear
1:56 PM 53.1 °F - 19.9 °F 27% 30.22 in 10.0 mi Variable 6.9 mph - N/A   Clear
2:56 PM 52.0 °F - 19.9 °F 28% 30.20 in 10.0 mi SSW 8.1 mph - N/A   Clear
3:56 PM 51.1 °F - 21.0 °F 31% 30.20 in 10.0 mi Variable 4.6 mph - N/A   Clear
4:56 PM 50.0 °F - 21.9 °F 33% 30.18 in 10.0 mi Calm Calm - N/A   Partly Cloudy
6:56 PM 48.0 °F - 25.0 °F 41% 30.19 in 10.0 mi Calm Calm - N/A   Overcast
7:56 PM 48.9 °F - 24.1 °F 38% 30.17 in 10.0 mi Calm Calm - N/A   Mostly Cloudy
8:56 PM 48.0 °F - 24.1 °F 39% 30.15 in 10.0 mi Calm Calm - N/A   Clear
9:56 PM 46.0 °F - 24.1 °F 42% 30.14 in 10.0 mi Calm Calm - N/A   Clear
10:56 PM 45.0 °F - 25.0 °F 46% 30.13 in 10.0 mi Calm Calm - N/A   Clear
11:56 PM 46.9 °F - 25.0 °F 42% 30.11 in 10.0 mi Variable 4.6 mph - N/A   Clear